Regional Weather Roundup
Issued by NWS Sioux Falls, SD

Home | Current Version | Previous Version | Text Only | Print | Product List | Glossary Off
Versions: 1 2 3 4 5 6 7 8 9 10 11 12 13 14 15 16 17 18 19 20 21 22 23 24 25 26 27 28 29 30 31 32 33 34 35 36 37 38 39 40 41 42 43 44 45 46 47 48 49 50

850
ASUS43 KFSD 272302
RWRFSD

WEATHER ROUNDUP FOR SE SOUTH DAKOTA/SW MINNESOTA/NW IOWA
NATIONAL WEATHER SERVICE SIOUX FALLS SD
600 PM CDT SAT AUG 27 2016

NOTE: "FAIR" INDICATES FEW OR NO CLOUDS BELOW 12,000 FEET WITH NO
SIGNIFICANT WEATHER AND OR OBSTRUCTIONS TO VISIBILITY.


SDZ038>040-050-052>070-280000-
SOUTHEAST SOUTH DAKOTA

CITY           SKY/WX    TMP DP  RH WIND       PRES   REMARKS
BROOKINGS      SUNNY     74  62  66 S9        29.97S
CHAMBERLAIN    SUNNY     86  60  40 SW8       29.90S
HURON          SUNNY     81  60  48 SE10      29.91F
MADISON        FAIR      73  64  73 S8        29.98S
MITCHELL       SUNNY     83  59  44 S10       29.93S
SIOUX FALLS    MOSUNNY   77  65  66 S8        29.98R
WINNER         FAIR      87  61  41 S10       29.90F
YANKTON        SUNNY     81  61  50 S12       29.94S
$$

MNZ071-072-080-081-089-090-097-098-280000-
SOUTHWEST MINNESOTA

CITY           SKY/WX    TMP DP  RH WIND       PRES   REMARKS
FAIRMONT       MOSUNNY   73  64  73 W6        30.01R
JACKSON          N/A     73  59  60 SW7       30.01S
LUVERNE        SUNNY     73  61  64 S5        30.00S
MARSHALL       MOSUNNY   74  62  66 SW8       29.98S
MONTEVIDEO     MOSUNNY   75  63  64 SW5       30.00R
REDWOOD FALLS  PTSUNNY   72  62  71 S7        29.98S
TRACY          MOSUNNY   74  63  70 SW6       29.99S
WINDOM         MOSUNNY   73  63  68 S6        30.00S
$$

IAZ001>003-012>014-020>022-031-032-NEZ013-014-SDZ071-280000-
NORTHWEST IOWA

CITY           SKY/WX    TMP DP  RH WIND       PRES   REMARKS
CHEROKEE       SUNNY     77  66  68 SW5       29.99F
DENISON        SUNNY     79  66  65 VRB5      29.97F
ESTHERVILLE    SUNNY     73  65  75 W10       30.00S
LE MARS        MOSUNNY   77  64  65 S8        29.99S
ORANGE CITY    SUNNY     75  64  69 S5        30.00S
SHELDON        SUNNY     73  64  73 S5        29.99S
SIOUX CITY     MOSUNNY   80  67  64 VRB3      29.97F
SPENCER        SUNNY     73  62  68 SW8       30.01R
STORM LAKE     SUNNY     77  66  69 SW6       30.01S
$$

ABBREVIATIONS USED IN REMARKS
   TC - TEMPERATURE IN CELSIUS
  WCI - WIND CHILL INDEX
   HX - HEAT INDEX
  VSB - VISIBILITY





USA.gov is the U.S. government's official web portal to all federal, state and local government web resources and services.